AirNav   Everest Fuels
 
 912 users online  

24CA Mesa Heliport
Pasadena, California, USA

GOING TO PASADENA?


FAA INFORMATION EFFECTIVE 21 MAY 2020

Location

FAA Identifier: 24CA
Lat/Long: 34-12-20.4800N 118-10-25.3500W
34-12.341333N 118-10.422500W
34.2056889,-118.1737083
(estimated)
Elevation: 1520 ft. / 463 m (estimated)
Variation: 14E (1985)
From city: 4 miles N of PASADENA, CA
Time zone: UTC -7 (UTC -8 during Standard Time)
Zip code: 91011

Heliport Operations

Heliport use: Private use. Permission required prior to landing
Activation date: 03/1981
Control tower: no
ARTCC: LOS ANGELES CENTER
FSS: HAWTHORNE FLIGHT SERVICE STATION
Attendance: UNATNDD
Wind indicator: yes
Segmented circle: no

Heliport Communications

WX ASOS at BUR (9 nm W): PHONE 818-841-1384
WX AWOS-3PT at EMT (10 nm SE): 118.75 ((626) 444-1107)
WX AWOS-3PT at WHP (12 nm W): 132.1 (818-899-9820)
WX ASOS at VNY (16 nm W): PHONE 818-904-9213
WX ASOS at SMO (18 nm SW): PHONE 310-392-6453
WX ASOS at HHR (19 nm SW): PHONE 310-973-8930
WX AWOS-3PT at CPM (19 nm S): 127.150 (310-631-4958)
WX ASOS at LAX (20 nm SW): PHONE 310-568-1486

Nearby radio navigation aids

VOR radial/distance  VOR name  Freq  Var
VNYr079/15.8VAN NUYS VOR/DME113.1015E
SMOr035/18.3SANTA MONICA VOR/DME110.8015E
POMr277/20.7POMONA VORTAC110.4015E
LAXr023/20.8LOS ANGELES VORTAC113.6015E
SLIr332/26.0SEAL BEACH VORTAC115.7015E
PMDr177/26.1PALMDALE VORTAC114.5015E
LHSr130/34.9LAKE HUGHES VORTAC114.3515E
FIMr089/36.2FILLMORE VORTAC112.5015E
PDZr283/36.3PARADISE VORTAC112.2015E
ELBr311/38.7EL TORO VOR/DME117.2014E
RALr279/(39.0)RIVERSIDE VOR112.4014E

Heliport Services

Runway Information

Helipad H1

Dimensions: 50 x 50 ft. / 15 x 15 m
Surface: asphalt
Latitude: 34-12.341333N
Longitude: 118-10.422500W
Elevation: 1520.0 ft.
Traffic pattern: leftleft

Heliport Ownership and Management from official FAA records

Ownership: Publicly-owned
Owner: NASA/CA. INSTITUTE OF TECH
4800 OAK GROVE DRIVE
PASADENA, CA 91109
JET PROPULSION LABORATORY.
Manager: WILLIAM MICHAEL
4800 OAK GROVE DRIVE;180-300
PASADENA, CA 91109
Phone (818) 354-4091

Additional Remarks

A52-H1 STORAGE BLDG 35' SW OF PAD.
EMERG USE ONLY, PRIOR PERMISSION REQUIRED
FOR CD CTC LOS ANGELES ARTCC AT 661-575-2079.

Instrument Procedures

There are no published instrument procedures at 24CA.

Some nearby airports with instrument procedures:

KBUR - Bob Hope Airport (9 nm W)
KEMT - San Gabriel Valley Airport (10 nm SE)
KWHP - Whiteman Airport (12 nm W)
KVNY - Van Nuys Airport (16 nm W)
KSMO - Santa Monica Municipal Airport (18 nm SW)
KHHR - Jack Northrop Field/Hawthorne Municipal Airport (19 nm SW)
KLAX - Los Angeles International Airport (20 nm SW)
 
Loc | Ops | Rwys | IFR | FBO | Links
Com | Nav | Svcs | Stats | Notes

San Bernardino International Airport Authority
 
Area around 24CA (Mesa Heliport)
 
Road maps at: MapQuest Bing Google
 
Aerial photo
No photo
 
Sectional chart

 
Airport distance calculator
Flying to Mesa Heliport? Find the distance to fly.

From to 24CA

Sunrise and sunset
Times for 01-Jun-2020
 Local
(UTC-7)
 Zulu
(UTC)
Morning civil twilight05:1412:14
Sunrise05:4312:43
Sunset19:5902:59
Evening civil twilight20:2803:28

Current date and time
Zulu (UTC)  01-Jun-2020 23:15:53
Local (UTC-7)  01-Jun-2020 16:15:53
 
METAR
KBUR 
10nm W 
012253Z 28008KT 10SM CLR 31/06 A2987 RMK AO2 SLP101 T03060056 $
KCQT 
10nm S 
012252Z AUTO VRB03KT 10SM CLR 26/11 A2986 RMK AO2 SLP109 T02610106
KEMT 
11nm SE 
012248Z 19009KT 10SM CLR 29/10 A2986
KWHP 
12nm W 
012250Z 24007G14KT 10SM FEW040 SCT100 30/05 A2992
KVNY 
15nm W 
012251Z 32010KT 10SM CLR 31/05 A2987 RMK AO2 SLP106 T03110050
KSMO 
18nm SW 
012251Z AUTO 25011G19KT 10SM CLR 23/12 A2987 RMK AO2 SLP111 T02280122
KHHR 
19nm SW 
012253Z AUTO 26014KT 10SM CLR 24/11 A2988 RMK AO2 SLP116 T02440106 $
KLAX 
19nm SW 
012253Z 26016G23KT 10SM FEW050 SCT150 BKN200 BKN250 22/11 A2987 RMK AO2 SLP115 T02170111
TAF
KBUR 
10nm W 
011738Z 0118/0218 14006KT P6SM SCT250 FM012000 17010KT P6SM BKN250 FM020200 12006KT P6SM BKN250 FM020500 VRB03KT P6SM BKN250
KVNY 
15nm W 
011738Z 0118/0218 VRB03KT P6SM SCT250 FM012000 16010KT P6SM BKN250 FM020200 12006KT P6SM BKN250 FM020500 VRB03KT P6SM BKN250
KSMO 
18nm SW 
011738Z 0118/0218 21006KT P6SM SCT250 FM012200 24012KT P6SM BKN250 FM020400 VRB03KT P6SM BKN250
KLAX 
19nm SW 
012018Z 0120/0224 26016KT P6SM BKN250 FM020400 26008KT P6SM BKN250 FM020800 VRB03KT P6SM SCT008 BKN250 FM021800 26006KT P6SM BKN250 FM022100 26012KT P6SM BKN250
NOTAMs
Click for the latest NOTAMs
NOTAMs are issued by the DoD/FAA and will open in a separate window not controlled by AirNav.

 

 
 

Would you like to see your business listed on this page?

 If your business provides an interesting product or service to pilots, flight crews, aircraft, or users of the Mesa Heliport, you should consider listing it here.  To start the listing process, click on the button below
 
Add a business
 

Other Pages about Mesa Heliport

Update a link
 
Copyright © AirNav, LLC. All rights reserved. Privacy Policy  Contact